NOAA 16 DEB, 41377

Orbit data source: Space-Track

NOAA 16 DEB, 41377 is space debris in SSO originally from a launch on Thu, 21 Sep 2000 UTC launched from the Air Force Western Test Range (AFWTR). Debris objects in space refer to the collection of defunct objects orbiting the Earth. Examples of debris include non-operational satellites, rocket bodies, and fragments generated from explosions, collisions, or faulty payload assembly.

Loading next visibility...
Identifier
41377, 2000-055JW
Orbit
SSO
Country
Flag of USUS
Related business
Manufacturer
Unknown
Mission
Spacecraft
Bus & Motor
Unknown
Mass
Unknown
Launch date (UTC)
2000-09-21 (25 years ago)
Launch vehicle
Unknown
Launch site
Air Force Western Test Range (AFWTR)
Object type
Payload
Rocket body
Debris
Shape & HBR
Unknown shape, 0.1 m
Radar Cross Section
Small (<0.1 m²)

Expand to show TLE details & history
Last TLE update: 23 hours ago

TLE from 23 hours ago
0 NOAA 16 DEB
1 41377U 00055JW  26037.52872069  .00005952  00000-0  22754-2 0  9992
2 41377  98.8210 147.4930 0018617  22.7145 337.4857 14.30960698520925
Epoch: 2026-02-06T12:41Z
TLE epoch observation values (Epoch: 2026-02-06T12:41:21.467Z)
Latitude
-0.00003°
Longitude
-179.51174°
Altitude
779.123 km
Speed
7.471 km/s
True Right ascension
09h 49m 58s
True Declination
0° 00' 00"
Sunlit
Object was in full shadow at epoch
Visualization orbit readout
Latitude
Unknown
Longitude
Unknown
Altitude
Unknown
Speed
Unknown
Apparent Right ascension
Unknown
Apparent Declination
Unknown
Sunlit
N/A
Visualization observer readout
Local Sidereal Time
14:02:54
Azimuth
Unknown
Elevation
Unknown
Doppler factor
Unknown
Orbital elements
Apogee altitude
799.008 km
Perigee altitude
772.334 km
Semi-major axis
7,163.808 km
Eccentricity
0.00186
Inclination
98.821°
RAAN
147.493°
Arg. of periapsis
22.7145°
True anomaly
337.40384°
Mean anomaly
337.4857°
Eccentric anomaly
337.44479°
Mean motion
3.57954 °/min
Orbital period
100.57 mins
BSTAR
0.0022754
Loading maneuver chart data...
Computing Atmospheric mass density...
Loading historical data...
Loading historical data...
Loading historical data...
Loading historical data...
Loading historical data...
Loading historical data...
Loading historical data...

Documentation

Showing up to 5 results
|